Alturas, CA

11:34 PM PST on February 05, 2016 (GMT -0800)
Alturas Municipal

Weather History for KAAT - July, 2013

Change the Weather History Date:

Tuesday, July 16, 2013

  Actual Average Record
Temperature  
Mean Temperature 69 °F 67 °F  
Max Temperature 89 °F 89 °F 101 °F (1959)
Min Temperature 49 °F 45 °F 32 °F (1993)
Degree Days  
Heating Degree Days 0 1  
Month to date heating degree days 2 26  
Since 1 June heating degree days 158 206  
Since 1 July heating degree days 2 26  
Cooling Degree Days 4 3  
Month to date cooling degree days 79 34  
Year to date cooling degree days 122 45  
Since 1 June cooling degree days 122 45  
Growing Degree Days 20 (Base 50)    
Moisture  
Dew Point 34 °F    
Average Humidity 35    
Maximum Humidity 59    
Minimum Humidity 10    
Precipitation  
Precipitation 0.00 in 0.00 in 0.14 in (1975)
Month to date precipitation T 0.12  
Year to date precipitation 4.43 8.56  
Sea Level Pressure  
Sea Level Pressure 29.86 in    
Wind  
Wind Speed 7 mph (WSW)    
Max Wind Speed 24 mph    
Max Gust Speed 31 mph    
Visibility 10 miles    
Events      
T = Trace of Precipitation, MM = Missing Value Source: NWS Daily Summary

Daily Weather History Graph

Daily Weather History Graph

Search for Another Location

Airport or City:

Trip Planner

Search our weather history database for the weather conditions in past years. The results will help you decide how hot, cold, wet, or windy it might be!

Date:

Astronomy

Jul. 16, 2013 Rise Set
Actual Time 5:42 AM PDT 8:33 PM PDT
Civil Twilight 5:09 AM PDT 9:06 PM PDT
Nautical Twilight 4:28 AM PDT 9:47 PM PDT
Astronomical Twilight 3:40 AM PDT 10:35 PM PDT
Moon 2:19 PM PDT (7/16) 12:17 AM PDT (7/16)
Length of Visible Light 15h 56m
Length of Day
14h 50m
First Quarter, 57% of the Moon is Illuminated
Jul 16
First Quarter
Jul 22
Full
Jul 29
Last Quarter
Aug 6
New
Aug 14
First Quarter

Hourly Weather History & Observations

Time (PDT) Temp. Dew Point Humidity Pressure Visibility Wind Dir Wind Speed Gust Speed Precip Events Conditions
12:55 AM 66.0 °F 39.0 °F 37% 29.81 in 10.0 mi Calm Calm - N/A   Clear
1:55 AM 62.1 °F 39.9 °F 44% 29.81 in 10.0 mi ESE 4.6 mph - N/A   Clear
2:55 AM 59.0 °F 39.0 °F 48% 29.82 in 10.0 mi Calm Calm - N/A   Clear
3:55 AM 54.0 °F 39.0 °F 57% 29.82 in 10.0 mi Calm Calm - N/A   Clear
4:55 AM 51.1 °F 37.0 °F 59% 29.83 in 10.0 mi Calm Calm - N/A   Clear
5:55 AM 51.1 °F 37.0 °F 59% 29.82 in 9.0 mi NNW 3.5 mph - N/A   Clear
6:55 AM 57.0 °F 41.0 °F 55% 29.83 in 10.0 mi ESE 4.6 mph - N/A   Clear
7:55 AM 64.0 °F 42.1 °F 45% 29.84 in 10.0 mi Calm Calm - N/A   Partly Cloudy
8:55 AM 71.1 °F 42.1 °F 35% 29.84 in 10.0 mi West 3.5 mph - N/A   Clear
9:55 AM 75.9 °F 42.1 °F 30% 29.83 in 10.0 mi Calm Calm - N/A   Clear
10:55 AM 78.1 °F 39.0 °F 25% 29.83 in 10.0 mi Calm Calm - N/A   Clear
11:55 AM 82.9 °F 28.9 °F 14% 29.83 in 10.0 mi West 18.4 mph 21.9 mph N/A   Clear
12:55 PM 84.0 °F 34.0 °F 17% 29.82 in 10.0 mi WSW 10.4 mph 18.4 mph N/A   Clear
1:55 PM 84.9 °F 33.1 °F 16% 29.83 in 10.0 mi WNW 9.2 mph 20.7 mph N/A   Partly Cloudy
2:55 PM 87.1 °F 30.0 °F 13% 29.82 in 10.0 mi WSW 8.1 mph 18.4 mph N/A   Partly Cloudy
3:55 PM 88.0 °F 24.1 °F 10% 29.83 in 10.0 mi SW 10.4 mph 21.9 mph N/A   Unknown
4:55 PM 86.0 °F 32.0 °F 14% 29.85 in 10.0 mi West 19.6 mph 25.3 mph N/A   Clear
5:55 PM 82.0 °F 33.1 °F 17% 29.87 in 10.0 mi West 21.9 mph 27.6 mph N/A   Clear
6:55 PM 79.0 °F 33.1 °F 19% 29.89 in 10.0 mi West 18.4 mph 26.5 mph N/A   Clear
7:55 PM 75.0 °F 28.0 °F 18% 29.91 in 10.0 mi West 16.1 mph - N/A   Clear
8:55 PM 69.1 °F 26.1 °F 20% 29.94 in 10.0 mi West 8.1 mph - N/A   Clear
9:55 PM 64.0 °F 27.0 °F 25% 29.97 in 10.0 mi SE 3.5 mph - N/A   Clear
10:55 PM 66.0 °F 27.0 °F 23% 29.98 in 10.0 mi SSW 6.9 mph - N/A   Clear
11:55 PM 55.0 °F 28.0 °F 35% 30.01 in 10.0 mi ENE 3.5 mph - N/A   Clear